Powrót do katalogu

SCOUT B-1 DEB

AktywnyLEO
NORAD 8868·DEBRIS·🇺🇸 United States

Wystrzelony May 22, 1976 z Vandenberg Space Force Base

Loading…

Następne Przeloty (najbliższe 24 godziny)

TLE

ŚwieżeSource: Space-Track

Epoka: Sep 14, 2026, 09:04 UTC

1 08868U 76047D   26257.37804744  .00000130  00000-0  16721-3 0  9997
2 08868 100.0790  46.8845 0050113  43.7337 345.5614 13.81727603529867

Śledź SCOUT B-1 DEB w czasie rzeczywistym z AllMySat

Download on the App Store